Regional Weather Roundup
Issued by NWS State College, PA

Home | Current Version | Previous Version | Text Only | Print | Product List | Glossary Off
Versions: 1 2 3 4 5 6 7 8 9 10 11 12 13 14 15 16 17 18 19 20 21 22 23 24 25 26 27 28 29 30 31 32 33 34 35 36 37 38 39 40 41 42 43 44 45 46 47 48 49 50

269
ASUS41 KCTP 242310
RWRCTP

REGIONAL WEATHER ROUNDUP
NATIONAL WEATHER SERVICE STATE COLLEGE PA
700 PM EDT WED MAY 24 2017

Note: "fair" indicates few or no clouds below 12,000 feet with no
significant weather and/or obstructions to visibility.

* = STATION THAT DOES NOT REPORT PRECIPITATION /E.G. RAIN...SNOW...ETC/
    THUNDER OR FOG.

PAZ002>004-007>009-013>016-020>023-029>032-250000-
WESTERN PENNSYLVANIA

CITY           SKY/WX    TMP DP  RH WIND       PRES   REMARKS
ERIE           CLOUDY    68  52  56 E7        29.55F
MEADVILLE      PTSUNNY   66  51  58 SE9G20    29.57F
FRANKLIN*      PTSUNNY   64  50  59 SE14G22   29.59F
NEW CASTLE     CLOUDY    65  54  67 SE10G18   29.56S
BEAVER COUNTY  NOT AVBL
BUTLER*        CLOUDY    64  52  63 SE12G25   29.58S
PITTSBURGH INT LGT RAIN  62  57  83 SE14G23   29.56R
PITTSBURGH     LGT RAIN  60  53  77 SE13      29.58R
INDIANA*       CLOUDY    63  54  72 SE14G28   29.65S
LATROBE        LGT RAIN  61  55  82 SE7       29.61S
WASHINGTON CO* CLOUDY    59  54  82 SE13G22   29.57F
$$

PAZ004>006-010>012-017>019-024>028-033>037-041-042-045-046-049>053-250000-
CENTRAL PENNSYLVANIA

CITY           SKY/WX    TMP DP  RH WIND       PRES   REMARKS
BRADFORD       CLOUDY    65  48  54 SE18G25   29.66S
DUBOIS         CLOUDY    62  48  60 E14G21    29.63F
CLEARFIELD     CLOUDY    63  51  65 SE9G20    29.67S
JOHNSTOWN      CLOUDY    56  52  86 SE9G23    29.65F
ALTOONA        CLOUDY    61  53  75 SE9       29.69S
STATE COLLEGE  CLOUDY    63  50  63 SE13      29.70F
WILLIAMSPORT   CLOUDY    69  50  50 E14       29.68F
SELINSGROVE    CLOUDY    69  51  52 SE10      29.71F
FT INDIANTOWN  CLOUDY    67  53  59 SE9       29.72S
CAPITAL CITY   CLOUDY    69  52  54 SE13      29.71S
HARRISBURG     CLOUDY    67  55  65 S12       29.71S
YORK           CLOUDY    64  56  75 SE10      29.72S
$$

PAZ038>040-043-044-047-048-054-055-060>062-067>071-250000-
EASTERN PENNSYLVANIA

CITY           SKY/WX    TMP DP  RH WIND       PRES   REMARKS
SCRANTON       CLOUDY    69  49  48 SE8       29.74R
MOUNT POCONO   CLOUDY    62  47  57 SE12      29.78R
ALLENTOWN      CLOUDY    69  50  50 SE9       29.74S
QUAKERTOWN*    CLOUDY    66  52  59 SE6       29.76S
READING        PTSUNNY   68  52  56 SE9G18    29.72S
LANCASTER      PTSUNNY   67  55  65 SE9       29.73S
COATESVILLE    CLOUDY    64  50  59 VRB6G13   29.75S
POTTSTOWN      CLOUDY    65  48  54 VRB5      29.77R
BLUE BELL      CLOUDY    63  50  63 E7        29.77S
DOYLESTOWN     CLOUDY    65  52  62 VRB5      29.75S
WILLOW GROVE   NOT AVBL
NORTH PHILA    CLOUDY    66  51  58 SE12      29.78R
PHILADELPHIA   CLOUDY    66  50  56 E13       29.75F
$$




USA.gov is the U.S. government's official web portal to all federal, state and local government web resources and services.